Location: Newark
(37.8333°N, 119.5000°W)
Time: 07:04:07
(UTC+00:00)

Vanguard 2 - All Passes

Search period start: 24 August 2019 00:00
Search period end: 03 September 2019 00:00
Orbit: 554 x 2938 km, 32.9° (Epoch: 24 August)

Date Brightness Start Highest point End Pass type
(mag) Time Alt. Az. Time Alt. Az. Time Alt. Az.
24 Aug - 00:07:57 10° W 00:17:00 57° SSW 00:31:35 10° ESE daylight
24 Aug - 02:17:17 10° W 02:27:50 34° SSW 02:42:02 10° SSE daylight
24 Aug - 04:33:02 10° WSW 04:38:42 13° SW 04:44:46 10° SSW visible
24 Aug - 18:06:57 10° SSE 18:08:54 12° SE 18:11:05 10° ESE daylight
24 Aug - 20:11:01 10° SW 20:16:09 46° SSE 20:24:18 10° E daylight
24 Aug - 22:18:01 10° W 22:24:59 64° S 22:36:55 10° ESE daylight
25 Aug - 00:25:59 10° W 00:35:03 50° SSW 00:49:19 10° SE daylight
25 Aug - 02:36:00 10° W 02:45:49 27° SSW 02:58:31 10° SSE daylight
25 Aug - 18:23:12 10° S 18:26:24 19° SE 18:30:24 10° ESE daylight
25 Aug - 20:28:42 10° WSW 20:33:59 53° SSE 20:42:33 10° E daylight
25 Aug - 22:35:56 10° W 22:43:01 61° S 22:55:03 10° ESE daylight
26 Aug - 00:44:07 10° W 00:53:06 42° SSW 01:06:47 10° SE daylight
26 Aug - 02:55:17 10° WSW 03:03:48 20° SSW 03:14:16 10° S visible
26 Aug - 18:40:13 10° SSW 18:43:58 26° SSE 18:49:00 10° E daylight
26 Aug - 20:46:28 10° WSW 20:51:53 58° S 21:00:45 10° E daylight
26 Aug - 22:53:52 10° W 23:01:02 55° S 23:13:03 10° ESE daylight
27 Aug - 01:02:25 10° W 01:11:08 34° SSW 01:23:55 10° SSE daylight
27 Aug - 03:15:50 10° WSW 03:21:49 14° SW 03:28:38 10° S visible
27 Aug - 18:57:36 10° SW 19:01:40 34° SSE 19:07:20 10° E daylight
27 Aug - 21:04:18 10° WSW 21:09:48 59° S 21:18:54 10° ESE daylight
27 Aug - 23:11:50 10° W 23:19:03 48° SSW 23:30:52 10° SE daylight
28 Aug - 01:20:59 10° W 01:29:12 27° SSW 01:40:36 10° SSE daylight
28 Aug - 17:10:42 10° SSE 17:12:06 11° SSE 17:13:34 10° SE daylight
28 Aug - 19:15:12 10° SW 19:19:26 42° SSE 19:25:33 10° E daylight
28 Aug - 21:22:11 10° W 21:27:46 57° S 21:37:01 10° ESE daylight
28 Aug - 23:29:55 10° W 23:37:04 40° SSW 23:48:27 10° SE daylight
29 Aug - 01:40:02 10° WSW 01:47:15 20° SSW 01:56:37 10° S daylight
29 Aug - 17:26:59 10° SSW 17:29:44 18° SSE 17:32:49 10° ESE daylight
29 Aug - 19:32:55 10° WSW 19:37:16 49° S 19:43:42 10° E daylight
29 Aug - 21:40:05 10° W 21:45:45 52° S 21:55:02 10° ESE daylight
29 Aug - 23:48:08 10° W 23:55:07 33° SSW 00:05:44 10° SE daylight
30 Aug - 02:00:11 10° WSW 02:05:20 14° SSW 02:11:26 10° S daylight
30 Aug - 17:44:08 10° SSW 17:47:26 25° SSE 17:51:18 10° ESE daylight
30 Aug - 19:50:43 10° WSW 19:55:10 52° S 20:01:49 10° E daylight
30 Aug - 21:58:03 10° W 22:03:43 45° SSW 22:12:54 10° ESE daylight
31 Aug - 00:06:37 10° WSW 00:13:11 25° SSW 00:22:35 10° SSE daylight
31 Aug - 18:01:35 10° SW 18:05:11 32° SSE 18:09:33 10° E daylight
31 Aug - 20:08:34 10° WSW 20:13:05 52° S 20:19:53 10° ESE daylight
31 Aug - 22:16:06 10° W 22:21:43 38° SSW 22:30:34 10° SE daylight
01 Sep - 00:25:33 10° WSW 00:31:16 19° SSW 00:38:48 10° SSE daylight
01 Sep - 16:13:29 10° S 16:15:28 13° SSE 16:17:25 10° SE daylight
01 Sep - 18:19:15 10° WSW 18:23:00 39° SSE 18:27:40 10° E daylight
01 Sep - 20:26:29 10° W 20:31:01 48° S 20:37:53 10° ESE daylight
01 Sep - 22:34:16 10° WSW 22:39:44 30° SSW 22:47:57 10° SE daylight
02 Sep - 00:45:38 10° SW 00:49:22 13° SSW 00:53:43 10° S daylight
02 Sep - 16:30:15 10° SSW 16:33:14 19° SSE 16:36:11 10° ESE daylight
02 Sep - 18:37:02 10° WSW 18:40:52 44° S 18:45:45 10° ESE daylight
02 Sep - 20:44:25 10° W 20:48:57 41° S 20:55:46 10° ESE daylight
02 Sep - 22:52:42 10° WSW 22:57:46 23° SSW 23:04:55 10° SSE daylight
